{"data":{"norad_id":59010,"intl_designator":"2024-036N","name":"STARLINK-31528","alt_names":[],"object_type":"PAYLOAD","status":"ACTIVE","operator":null,"country":"US","launch_date":"2024-02-23","launch_site_code":"AFWTR","launch_vehicle":null,"mission":null,"orbit_class":"UNKNOWN","rcs_meters":null,"size_class":null,"mass_kg":null,"dimensions":null,"purposes":["comms"],"wikipedia_slug":null,"has_3d_model":false,"image_url":null,"decayed_at":null,"tle_current":{"epoch":"2026-09-20T16:12:07.673184Z","epoch_age_seconds":140324,"freshness":"FRESH","line1":"1 59010U 24036N   26263.67508881 -.00002579  00000+0 -65271-4 0  9991","line2":"2 59010  53.1597 251.2206 0000862  96.3380 263.7721 15.34377858145199","mean_motion":15.34377858,"eccentricity":8.62e-5,"inclination_deg":53.1597,"raan_deg":251.2206,"arg_perigee_deg":96.338,"mean_anomaly_deg":263.7721,"bstar":-6.5271e-5,"rev_number":14519,"period_min":93.849112361213,"perigee_km":462.17936558707,"apogee_km":463.35873779038,"semimajor_km":6840.9060516887,"source":"CELESTRAK","updated_at":"2026-09-21T09:00:34.025369Z"}}}